Location: Unspecified
(52.4292°N, 19.3359°E)
Time: 16:03:30
(UTC+02:00)

Transit 2A Rocket - Pass Details

Date: 26 May 2024
Orbit: 583 x 910 km, 66.7° (Epoch: 14 June)

Event Time Altitude Azimuth Distance (km) Brightness Sun altitude
Rises 12:54:09 0° 316° (NW) 3,427 8.2 58.7°
Reaches altitude 10° 12:56:47 10° 308° (NW) 2,525 7.6 58.7°
Maximum altitude 13:02:00 34° 246° (WSW) 1,444 7.3 58.5°
Drops below altitude 10° 13:07:22 10° 184° (S) 2,589 8.4 58.4°
Sets 13:10:06 0° 175° (S) 3,526 8.9 58.3°
